[[{"header":{"parameterUnit":"m.s-1","parameterCategory":2,"la1":30.2991,"la2":30.254,"lo1":-89.0895,"lo2":-89.0444,"dy":0.0017,"dx":0.0017,"nx":28,"ny":28,"refTime":"2025-07-06T21:00:00:Z","depth":"0","parameterNumber":2,"parameterNumberName":"U-component_of_CURRENTS"},"data":[0,0,0,0,0,0,0,0,0,0,0,0,0,0,0,0,0,0,0,0,0,0,0,0,0,0,0,0,0,0,0,0,0,0,0,0,0,0,0,0,0,0,0,0,0,0,0,0,0,0,0,0,0,0,0,0,0,0,0.3393,0.3394,0,0.3474,0.3475,0.3476,0.3467,0.3466,0.3464,0.3463,0.3535,0.3538,0.3541,0,0,0,0,0,0,0,0,0,0,0,0,0,0.3362,0.3362,0.3393,0.3394,0.3395,0.3474,0.3475,0.3476,0.3467,0.3466,0.3464,0.3462,0.3534,0.3537,0.3541,0,0,0,0,0,0,0,0,0,0,0,0,0,0.3403,0.3361,0.3393,0.3399,0.34,0.3473,0.3475,0.3476,0.3468,0.3466,0.3464,0.3462,0.3532,0.3537,0.3542,0.3613,0,0,0.3557,0.3559,0,0,0,0,0,0,0,0,0.34,0.3404,0.3397,0.3399,0.34,0.3457,0.349,0.3521,0.3468,0.3443,0.3463,0.3461,0.3509,0.3515,0.3537,0.3616,0.3619,0.3557,0.356,0.3562,0.3563,0,0,0,0,0,0,0,0.3397,0.3401,0.3426,0.3398,0.34,0.3443,0.3445,0.3497,0.3487,0.3445,0.3445,0.3453,0.3509,0.3532,0.3539,0.362,0.3557,0.3561,0.3564,0.3566,0.3783,0.3786,0,0,0,0,0,0,0.3381,0.3398,0.3423,0.3428,0.3394,0.3444,0.3447,0.3442,0.3487,0.3492,0.3454,0.3452,0.3525,0.3533,0.3541,0.3644,0.3562,0.3566,0.3569,0.378,0.3784,0.3787,0,0,0,0,0,0,0.3379,0.3382,0.342,0.3415,0.3423,0.3446,0.3441,0.3445,0.3465,0.3494,0.3498,0.3469,0.3524,0.3534,0.3601,0.3646,0.3569,0.3573,0.3777,0.3781,0.3785,0.384,0,0,0,0,0,0,0.3378,0.338,0.3383,0.3413,0.3422,0.3472,0.3443,0.3448,0.3472,0.347,0.3509,0.3513,0.3523,0.3594,0.3605,0.3651,0.3577,0.3773,0.3779,0.3784,0.3834,0.3845,0.3855,0,0,0,0,0,0.3376,0.3385,0.3382,0.3386,0.342,0.3474,0.3484,0.3494,0.3475,0.3501,0.3527,0.3512,0.3636,0.36,0.3613,0.3661,0.3771,0.3777,0.3784,0.3829,0.3843,0.3854,0,0,0,0,0,0,0.3373,0.3385,0.3383,0.3393,0.3435,0.3472,0.3495,0.3502,0.3545,0.3539,0.3553,0.3562,0.3643,0.365,0.361,0.3742,0.3701,0.371,0.3731,0.3744,0.3754,0.3836,0.3581,0,0,0,0,0,0.3373,0.3379,0.3409,0.3422,0.3439,0.3469,0.3493,0.3506,0.3542,0.3557,0.3591,0.3629,0.3686,0.3707,0.3763,0.3833,0.3885,0.3873,0.3883,0.3892,0.397,0.4086,0.4114,0.3808,0.3808,0.3808,0,0,0.3374,0.3384,0.3386,0.3423,0.3448,0.3509,0.3478,0.3521,0.3584,0.3562,0.3655,0.3677,0.3717,0.38,0.3835,0.3804,0.3995,0.39,0.3906,0.3982,0.4096,0.4126,0.4152,0.3813,0.3812,0.3811,0,0,0.3406,0.3389,0.3422,0.3462,0.3509,0.3536,0.3549,0.3602,0.3632,0.3715,0.3725,0.3787,0.3852,0.391,0.3938,0.4047,0.4056,0.4038,0.4147,0.4256,0.4283,0.4308,0.4361,0.439,0.403,0.403,0.403,0,0.3419,0.3463,0.3446,0.3506,0.3554,0.355,0.3629,0.3667,0.3743,0.3811,0.375,0.392,0.3922,0.4068,0.4093,0.4075,0.4121,0.4083,0.4271,0.4297,0.4321,0.4371,0.4402,0.4033,0.4033,0.4033,0.4032,0,0.3485,0.354,0.3566,0.3636,0.3678,0.3746,0.3791,0.3857,0.3874,0.3932,0.4072,0.4087,0.4195,0.4182,0.4165,0.4344,0.4313,0.4275,0.4237,0.4356,0.4398,0.443,0.4038,0.4037,0.4036,0.4035,0,0,0.3502,0.3599,0.3618,0.369,0.3762,0.3812,0.3916,0.4045,0.4144,0.4196,0.4343,0.4413,0.4427,0.4467,0.4449,0.4529,0.468,0.4477,0.4481,0.4527,0.4902,0.4785,0.4807,0.4669,0.4677,0.4682,0.4843,0,0.3589,0.3727,0.3747,0.3898,0.3985,0.4023,0.4121,0.4225,0.4296,0.4431,0.4483,0.4594,0.4528,0.4562,0.4647,0.4683,0.4778,0.464,0.4789,0.4794,0.4673,0.4846,0.4612,0.4731,0.4874,0.488,0.4883,0,0.3684,0.3765,0.3918,0.4066,0.4102,0.4176,0.4348,0.4434,0.4603,0.4659,0.4791,0.4823,0.4967,0.486,0.5044,0.4957,0.4976,0.4982,0.4987,0.4907,0.474,0.4649,0.4783,0.4583,0.4932,0.4928,0.4925,0,0.3742,0.3906,0.4032,0.4081,0.422,0.4303,0.4373,0.4526,0.4617,0.4815,0.4896,0.5068,0.5125,0.5224,0.5219,0.5158,0.5393,0.5292,0.5223,0.521,0.5065,0.5028,0.5035,0.5486,0.5486,0.5486,0.5485,0,0.386,0.3968,0.407,0.4139,0.4288,0.4354,0.4513,0.4619,0.4767,0.4894,0.5007,0.5125,0.5225,0.5335,0.5337,0.5382,0.5493,0.5327,0.5289,0.5066,0.503,0.489,0.4832,0.5492,0.549,0.5489,0.5488,0,0.3938,0.4001,0.415,0.4285,0.4322,0.4425,0.455,0.4662,0.4794,0.4962,0.5025,0.5211,0.5344,0.5418,0.5556,0.5502,0.5401,0.555,0.5252,0.5178,0.4886,0.4841,0.48,0.4671,0.5522,0.5521,0.552,0,0.4014,0.4096,0.4222,0.4285,0.4349,0.4474,0.4547,0.4668,0.4766,0.4996,0.5076,0.5268,0.5352,0.5503,0.5479,0.551,0.5361,0.5316,0.5177,0.4917,0.484,0.4675,0.4558,0.4979,0.4973,0.4969,0.4966,0,0.4151,0.4169,0.4256,0.435,0.4433,0.4506,0.4612,0.4664,0.4803,0.4922,0.505,0.5133,0.5283,0.5204,0.5263,0.5253,0.5033,0.5224,0.5061,0.4552,0.4277,0.4112,0.4785,0.4926,0.493,0.4933,0.4935,0.4937,0.4222,0.4287,0.4341,0.4413,0.4478,0.4471,0.445,0.4544,0.46,0.4657,0.4883,0.4875,0.4923,0.4949,0.4933,0.4698,0.4756,0.4523,0.453,0.4416,0.4182,0.4755,0.4776,0.4779,0.4781,0.4784,0.4786,0,0.4275,0.4301,0.4394,0.4398,0.437,0.4417,0.4428,0.4338,0.4284,0.4414,0.4461,0.439,0.4319,0.4326,0.4185,0.4014,0.3856,0.3894,0.3608,0.356,0.4158,0.4017,0.3743,0.3743,0.3743,0.3744,0.3744,0.3744,0.4293,0.4327,0.4323,0.4236,0.4219,0.4071,0.4002,0.3904,0.3907,0.3766,0.3675,0.3727,0.38,0.3764,0.3548,0.3469,0.321,0.3063,0.3104,0.3489,0.3545,0.3599,0.345,0.3062,0.3061,0.2311,0.2305,0.2301]},{"header":{"parameterUnit":"m.s-1","parameterCategory":2,"la1":30.2991,"la2":30.254,"lo1":-89.0895,"lo2":-89.0444,"dy":0.0017,"dx":0.0017,"nx":28,"ny":28,"refTime":"2025-07-06T21:00:00:Z","depth":"0","parameterNumber":3,"parameterNumberName":"V-component_of_CURRENTS"},"data":[0,0,0,0,0,0,0,0,0,0,0,0,0,0,0,0,0,0,0,0,0,0,0,0,0,0,0,0,0,0,0,0,0,0,0,0,0,0,0,0,0,0,0,0,0,0,0,0,0,0,0,0,0,0,0,0,0,0,0.0257,0.0256,0,0.0202,0.0202,0.0201,0.0158,0.0158,0.0157,0.0157,0.0094,0.0093,0.0091,0,0,0,0,0,0,0,0,0,0,0,0,0,0.0305,0.0305,0.0257,0.0256,0.0255,0.0202,0.0202,0.0201,0.0158,0.0158,0.0157,0.0157,0.0094,0.0093,0.0091,0,0,0,0,0,0,0,0,0,0,0,0,0,0.0271,0.0305,0.0257,0.0228,0.0225,0.0202,0.0201,0.0201,0.0158,0.0158,0.0157,0.0157,0.0095,0.0093,0.0091,0.009,0,0,0.0085,0.0084,0,0,0,0,0,0,0,0,0.0273,0.0269,0.0233,0.023,0.0227,0.0187,0.0195,0.0163,0.0158,0.0183,0.0157,0.0156,0.0125,0.012,0.0111,0.0087,0.0085,0.0085,0.0084,0.0083,0.0082,0,0,0,0,0,0,0,0.0275,0.0271,0.0235,0.0232,0.0228,0.0212,0.0206,0.0189,0.0157,0.0181,0.0178,0.0173,0.0123,0.0113,0.0109,0.0084,0.0085,0.0083,0.0082,0.0081,0.0108,0.0109,0,0,0,0,0,0,0.0284,0.0273,0.0236,0.0233,0.0249,0.0211,0.0205,0.02,0.0158,0.0151,0.0173,0.0171,0.0117,0.0111,0.0107,0.0159,0.0083,0.0081,0.008,0.0106,0.0108,0.011,0,0,0,0,0,0,0.0286,0.0282,0.0239,0.0252,0.0246,0.0211,0.0205,0.0199,0.0195,0.0152,0.0145,0.0176,0.0116,0.011,0.0112,0.0154,0.008,0.0078,0.0104,0.0106,0.0109,0.0227,0,0,0,0,0,0,0.0287,0.0282,0.0284,0.0253,0.0245,0.024,0.0206,0.0198,0.0192,0.0189,0.0152,0.0145,0.0115,0.0115,0.011,0.015,0.0077,0.0101,0.0105,0.0108,0.0221,0.0234,0.0245,0,0,0,0,0,0.0289,0.0302,0.0285,0.028,0.0248,0.0241,0.0237,0.0209,0.0193,0.0201,0.0182,0.0147,0.0134,0.0115,0.0109,0.0149,0.0099,0.0104,0.0108,0.0216,0.0231,0.0244,0,0,0,0,0,0,0.0324,0.0297,0.0278,0.0281,0.0267,0.0235,0.0238,0.0219,0.0209,0.0207,0.0165,0.0158,0.0176,0.0147,0.0127,0.0168,0.0113,0.0117,0.0198,0.0212,0.0224,0.0276,0.0075,0,0,0,0,0,0.0332,0.0334,0.0305,0.0308,0.0303,0.0271,0.0265,0.025,0.0235,0.0229,0.0206,0.0189,0.0188,0.0187,0.0173,0.0193,0.0182,0.0217,0.0229,0.0239,0.0278,0.0311,0.0331,0.0124,0.0124,0.0124,0,0,0.0345,0.0331,0.0331,0.0316,0.0299,0.0321,0.0267,0.0268,0.0301,0.0225,0.026,0.0225,0.0201,0.0227,0.0233,0.0209,0.0283,0.0244,0.0254,0.0288,0.0318,0.0338,0.0356,0.0127,0.0126,0.0126,0,0,0.0392,0.0361,0.0388,0.0383,0.0371,0.0358,0.0364,0.0344,0.0347,0.0369,0.033,0.0334,0.0316,0.0322,0.0319,0.0391,0.0341,0.0372,0.0481,0.0513,0.053,0.0546,0.0523,0.0535,0.0384,0.0384,0.0384,0,0.0411,0.0444,0.0395,0.0426,0.044,0.0385,0.0433,0.0431,0.0419,0.0446,0.0399,0.0415,0.0376,0.044,0.0458,0.0423,0.041,0.0427,0.053,0.0546,0.056,0.0532,0.0545,0.039,0.039,0.0389,0.0388,0,0.0485,0.0514,0.0531,0.0555,0.0558,0.0589,0.0578,0.0594,0.0583,0.0588,0.0634,0.0587,0.0607,0.0584,0.054,0.0625,0.0569,0.0537,0.0498,0.0588,0.0552,0.0563,0.0399,0.0397,0.0395,0.0394,0,0,0.0528,0.058,0.0585,0.063,0.0636,0.065,0.0706,0.0755,0.0819,0.0795,0.0888,0.086,0.0829,0.0827,0.077,0.0787,0.084,0.071,0.0709,0.0694,0.0875,0.0807,0.0811,0.0824,0.0827,0.083,0.0796,0,0.0612,0.0708,0.0709,0.0807,0.0858,0.0839,0.0898,0.0926,0.0948,0.1018,0.0992,0.1042,0.0925,0.0939,0.0941,0.0881,0.0881,0.0851,0.0785,0.0783,0.0719,0.0827,0.0772,0.0737,0.0806,0.0808,0.081,0,0.0696,0.0752,0.0864,0.0954,0.0973,0.1022,0.1111,0.1158,0.1227,0.1249,0.1289,0.1266,0.1297,0.1181,0.1139,0.1123,0.1019,0.0949,0.0946,0.0862,0.0739,0.0664,0.0753,0.055,0.0826,0.0825,0.0823,0,0.0755,0.0867,0.0966,0.0991,0.1071,0.1129,0.1172,0.1236,0.1306,0.141,0.1485,0.1491,0.1524,0.1425,0.1263,0.1217,0.1201,0.1116,0.0951,0.0941,0.0876,0.0856,0.0777,0.1099,0.1099,0.1099,0.1099,0,0.085,0.0928,0.1008,0.1056,0.1177,0.1203,0.1334,0.1381,0.149,0.1619,0.161,0.172,0.1594,0.1556,0.1366,0.1206,0.128,0.1009,0.0959,0.0908,0.0892,0.0695,0.0586,0.1097,0.1098,0.1098,0.1098,0,0.0897,0.0953,0.1063,0.1168,0.1206,0.1283,0.1412,0.1522,0.161,0.1789,0.184,0.1919,0.189,0.1713,0.1569,0.1358,0.1069,0.1098,0.1019,0.0962,0.0609,0.0509,0.0414,0.0341,0.0934,0.0932,0.0931,0,0.0938,0.1002,0.1116,0.119,0.1246,0.1363,0.146,0.1562,0.1696,0.1915,0.2031,0.2083,0.2143,0.1893,0.1556,0.1242,0.1043,0.0952,0.0863,0.0625,0.0476,0.0412,0.0354,0.0794,0.0792,0.079,0.0789,0,0.1009,0.1036,0.1117,0.1261,0.1378,0.1503,0.1662,0.1775,0.1941,0.2113,0.2333,0.2405,0.2207,0.1915,0.1487,0.1243,0.0808,0.0904,0.0706,0.0425,0.0308,0.0201,0.0734,0.0773,0.0774,0.0776,0.0777,0.0777,0.1045,0.1112,0.1217,0.1356,0.1489,0.1657,0.1773,0.1971,0.2185,0.2458,0.2517,0.2644,0.2186,0.1629,0.1305,0.0638,0.0697,0.041,0.0322,0.029,0.0195,0.0674,0.0628,0.0629,0.0629,0.063,0.063,0,0.1114,0.1196,0.1323,0.1488,0.1636,0.1692,0.1927,0.2066,0.2332,0.2567,0.2743,0.2526,0.1975,0.1398,0.0519,0.0113,-0.0012,-0.0105,-0.0213,-0.0231,0.023,0.0196,-0.0003,-0.0003,-0.0002,-0.0002,-0.0002,-0.0002,0.1156,0.1285,0.1353,0.1592,0.1709,0.1909,0.2037,0.2254,0.2445,0.2668,0.2707,0.2714,0.2179,0.0736,-0.0208,-0.0403,-0.0651,-0.0724,-0.0797,-0.0525,-0.0484,-0.0445,-0.0501,-0.0843,-0.0844,-0.1225,-0.1229,-0.1232]}],[{"header":{"parameterUnit":"m.s-1","parameterCategory":2,"la1":30.2991,"la2":30.254,"lo1":-89.0895,"lo2":-89.0444,"dy":0.0017,"dx":0.0017,"nx":28,"ny":28,"refTime":"2025-07-06T21:00:00:Z","depth":"2","parameterNumber":2,"parameterNumberName":"U-component_of_CURRENTS"},"data":[0,0,0,0,0,0,0,0,0,0,0,0,0,0,0,0,0,0,0,0,0,0,0,0,0,0,0,0,0,0,0,0,0,0,0,0,0,0,0,0,0,0,0,0,0,0,0,0,0,0,0,0,0,0,0,0,0,0,0.2773,0.2774,0,0.2871,0.2872,0.2873,0.288,0.2879,0.2878,0.2877,0.2881,0.2882,0.2883,0,0,0,0,0,0,0,0,0,0,0,0,0,0.2716,0.2716,0.2773,0.2775,0.2776,0.2871,0.2872,0.2873,0.288,0.2879,0.2878,0.2876,0.2881,0.2882,0.2883,0,0,0,0,0,0,0,0,0,0,0,0,0,0.2768,0.2716,0.2773,0.2792,0.2795,0.2871,0.2872,0.2874,0.288,0.2879,0.2877,0.2876,0.288,0.2882,0.2883,0.292,0,0,0.2888,0.2888,0,0,0,0,0,0,0,0,0.2765,0.277,0.2788,0.2791,0.2794,0.2863,0.2854,0.2885,0.288,0.2846,0.2877,0.2875,0.2869,0.2871,0.2891,0.2921,0.2921,0.2888,0.2889,0.2889,0.289,0,0,0,0,0,0,0,0.2761,0.2767,0.281,0.2789,0.2793,0.2838,0.2843,0.2861,0.2861,0.2849,0.285,0.2864,0.2869,0.289,0.2891,0.2921,0.2888,0.2889,0.289,0.289,0.3067,0.307,0,0,0,0,0,0,0.2748,0.2762,0.2807,0.2813,0.2778,0.284,0.2845,0.2841,0.2863,0.2866,0.2865,0.2864,0.2888,0.2889,0.2891,0.2992,0.2889,0.2891,0.2891,0.3063,0.3068,0.3072,0,0,0,0,0,0,0.2746,0.275,0.2803,0.2793,0.2803,0.2842,0.2838,0.2844,0.2866,0.2877,0.2877,0.2881,0.2887,0.2889,0.2921,0.299,0.2891,0.2893,0.3059,0.3064,0.307,0.3158,0,0,0,0,0,0,0.2743,0.2748,0.2756,0.2791,0.2803,0.2816,0.284,0.2847,0.2877,0.2877,0.289,0.2889,0.2886,0.2919,0.2923,0.299,0.2894,0.3054,0.3061,0.3068,0.315,0.3166,0.3179,0,0,0,0,0,0.2741,0.2753,0.2755,0.2762,0.2805,0.2815,0.2824,0.2848,0.2879,0.2868,0.2912,0.2889,0.2968,0.2922,0.2926,0.2995,0.305,0.3059,0.3067,0.3143,0.3163,0.3179,0,0,0,0,0,0,0.2724,0.2756,0.2758,0.2776,0.2779,0.2816,0.2841,0.2857,0.2888,0.2927,0.2917,0.2919,0.2972,0.2979,0.2928,0.3074,0.3015,0.3024,0.3072,0.309,0.3104,0.3092,0.2895,0,0,0,0,0,0.2725,0.2743,0.2758,0.2768,0.2782,0.2816,0.2836,0.2862,0.2894,0.2909,0.2917,0.2967,0.3016,0.3042,0.3064,0.3138,0.3141,0.3195,0.321,0.3222,0.3219,0.3313,0.3335,0.31,0.31,0.31,0,0,0.2725,0.2744,0.2755,0.2767,0.2793,0.2832,0.2823,0.2873,0.2929,0.2907,0.2982,0.2997,0.304,0.3119,0.3149,0.3132,0.3289,0.3232,0.3242,0.3233,0.3324,0.3346,0.3366,0.3106,0.3105,0.3104,0,0,0.2738,0.2747,0.2774,0.279,0.2837,0.2865,0.2875,0.2921,0.2959,0.3022,0.3049,0.3088,0.3152,0.3197,0.3234,0.3343,0.3346,0.3385,0.3467,0.3559,0.3579,0.3596,0.3611,0.3628,0.3414,0.3415,0.3415,0,0.2748,0.2769,0.2777,0.2814,0.285,0.2878,0.2927,0.2979,0.3031,0.3051,0.3052,0.3188,0.3187,0.3324,0.3365,0.3371,0.3416,0.339,0.3576,0.3593,0.3609,0.362,0.3638,0.342,0.3419,0.3419,0.3418,0,0.2778,0.281,0.2831,0.2889,0.292,0.2968,0.3037,0.3082,0.3133,0.3151,0.3259,0.3312,0.3394,0.3417,0.3421,0.357,0.356,0.3562,0.3521,0.3637,0.3642,0.3659,0.3427,0.3425,0.3424,0.3423,0,0,0.2775,0.2841,0.2852,0.2879,0.2977,0.2992,0.3113,0.3167,0.3232,0.3302,0.3407,0.3483,0.3516,0.3565,0.3623,0.3693,0.3809,0.3696,0.3698,0.369,0.3996,0.3832,0.3833,0.388,0.3884,0.3887,0.3945,0,0.2801,0.2858,0.2907,0.2978,0.3015,0.3091,0.3168,0.3235,0.3309,0.3407,0.3506,0.3594,0.3592,0.3669,0.3763,0.3791,0.3866,0.379,0.3901,0.3902,0.3727,0.3852,0.3563,0.358,0.3962,0.3965,0.3967,0,0.2828,0.2858,0.2945,0.2999,0.3024,0.3088,0.3209,0.3283,0.3422,0.3487,0.3641,0.3713,0.3863,0.3856,0.4007,0.3982,0.4006,0.4009,0.4013,0.3837,0.3771,0.3534,0.3597,0.3995,0.3993,0.3991,0.3989,0,0.2798,0.2877,0.2943,0.2977,0.3069,0.3131,0.317,0.3288,0.3364,0.3562,0.3655,0.384,0.4015,0.4064,0.4094,0.4082,0.4229,0.4205,0.4076,0.4062,0.3818,0.3775,0.4317,0.4317,0.4317,0.4317,0.4317,0,0.2806,0.2849,0.2935,0.2966,0.3019,0.3103,0.3199,0.3262,0.3442,0.3528,0.3714,0.389,0.4094,0.421,0.4165,0.4172,0.4301,0.4097,0.4088,0.3837,0.3797,0.4156,0.4137,0.4319,0.4319,0.4318,0.4318,0,0.2777,0.2853,0.2905,0.2989,0.3018,0.3054,0.3171,0.3212,0.3406,0.3586,0.3661,0.3992,0.4105,0.4198,0.4309,0.4283,0.4236,0.4206,0.3857,0.3804,0.3984,0.3969,0.4065,0.406,0.4056,0.4052,0.4049,0,0.2783,0.2785,0.2879,0.2906,0.2957,0.3029,0.3043,0.3181,0.3265,0.3602,0.3683,0.3942,0.406,0.4164,0.4114,0.4014,0.414,0.3749,0.3648,0.3987,0.3969,0.396,0.3951,0.3356,0.3348,0.3341,0.3336,0,0.2679,0.2715,0.2743,0.2842,0.2877,0.2924,0.299,0.3039,0.3236,0.3384,0.36,0.3717,0.3889,0.3765,0.3742,0.363,0.372,0.3604,0.4116,0.345,0.3321,0.3302,0.3317,0.3275,0.3281,0.3286,0.3289,0.3291,0.2583,0.2596,0.2659,0.2739,0.2795,0.2855,0.283,0.2902,0.3002,0.3155,0.3345,0.3405,0.3531,0.3324,0.3178,0.3098,0.3328,0.3215,0.3237,0.3266,0.3158,0.3029,0.2904,0.2908,0.2911,0.2914,0.2916,0,0.2458,0.2509,0.2539,0.2658,0.2662,0.2801,0.2817,0.2738,0.2751,0.2872,0.2948,0.2734,0.2684,0.2765,0.2553,0.2532,0.2508,0.2434,0.2415,0.2477,0.2532,0.2387,0.1929,0.1925,0.1922,0.192,0,0,0.2402,0.2427,0.2467,0.2505,0.2618,0.2597,0.259,0.2453,0.2455,0.2374,0.2387,0.2539,0.2711,0.2298,0.2227,0.2067,0.2252,0.197,0.2768,0.2811,0.2862,0.299,0.2837,0,0,0,0,0]},{"header":{"parameterUnit":"m.s-1","parameterCategory":2,"la1":30.2991,"la2":30.254,"lo1":-89.0895,"lo2":-89.0444,"dy":0.0017,"dx":0.0017,"nx":28,"ny":28,"refTime":"2025-07-06T21:00:00:Z","depth":"2","parameterNumber":3,"parameterNumberName":"V-component_of_CURRENTS"},"data":[0,0,0,0,0,0,0,0,0,0,0,0,0,0,0,0,0,0,0,0,0,0,0,0,0,0,0,0,0,0,0,0,0,0,0,0,0,0,0,0,0,0,0,0,0,0,0,0,0,0,0,0,0,0,0,0,0,0,0.0045,0.0044,0,-0.0016,-0.0017,-0.0018,-0.0063,-0.0063,-0.0063,-0.0063,-0.014,-0.0142,-0.0144,0,0,0,0,0,0,0,0,0,0,0,0,0,0.0079,0.0079,0.0045,0.0044,0.0044,-0.0016,-0.0017,-0.0019,-0.0063,-0.0063,-0.0063,-0.0063,-0.0139,-0.0142,-0.0144,0,0,0,0,0,0,0,0,0,0,0,0,0,0.0042,0.0079,0.0045,0.0017,0.0014,-0.0016,-0.0017,-0.0019,-0.0063,-0.0063,-0.0063,-0.0063,-0.0138,-0.0141,-0.0144,-0.0161,0,0,-0.0153,-0.0155,0,0,0,0,0,0,0,0,0.0045,0.0041,0.0022,0.0019,0.0016,-0.0029,-0.0033,-0.0066,-0.0063,-0.0038,-0.0063,-0.0063,-0.0102,-0.0108,-0.0124,-0.0165,-0.0168,-0.0154,-0.0156,-0.0157,-0.0158,0,0,0,0,0,0,0,0.0047,0.0043,0.0017,0.0021,0.0018,-0.0007,-0.0012,-0.004,-0.0072,-0.004,-0.0042,-0.0043,-0.0104,-0.0121,-0.0126,-0.0169,-0.0154,-0.0156,-0.0158,-0.0159,-0.0189,-0.0189,0,0,0,0,0,0,0.0064,0.0046,0.0019,0.0015,0.0034,-0.0007,-0.0013,-0.0018,-0.0071,-0.0078,-0.0043,-0.0045,-0.0116,-0.0123,-0.0129,-0.0106,-0.0157,-0.016,-0.0161,-0.019,-0.0189,-0.0188,0,0,0,0,0,0,0.0065,0.0062,0.0021,0.0032,0.0026,-0.0007,-0.0012,-0.0019,-0.0028,-0.0073,-0.0081,-0.0044,-0.0116,-0.0125,-0.0138,-0.0111,-0.0161,-0.0164,-0.0192,-0.019,-0.0189,-0.0089,0,0,0,0,0,0,0.0066,0.0063,0.0063,0.0033,0.0026,0.0007,-0.0012,-0.002,-0.0028,-0.0031,-0.0077,-0.0084,-0.0117,-0.0133,-0.0141,-0.0116,-0.0166,-0.0193,-0.0191,-0.0189,-0.0094,-0.0084,-0.0077,0,0,0,0,0,0.0068,0.0076,0.0063,0.006,0.0028,0.0008,0.0001,-0.0025,-0.0027,-0.0033,-0.0053,-0.0083,-0.0127,-0.0135,-0.0144,-0.0119,-0.0194,-0.0192,-0.0189,-0.0098,-0.0086,-0.0077,0,0,0,0,0,0,0.0088,0.0071,0.0057,0.0058,0.0035,0.0002,-0.0001,-0.0016,-0.0037,-0.0032,-0.0075,-0.0084,-0.0089,-0.0117,-0.0125,-0.0123,-0.0164,-0.0163,-0.0091,-0.0081,-0.0072,-0.0067,-0.0168,0,0,0,0,0,0.0094,0.0097,0.007,0.0069,0.0063,0.0033,0.0023,0.0009,-0.0011,-0.0021,-0.005,-0.0073,-0.0089,-0.0094,-0.0124,-0.012,-0.0151,-0.0109,-0.0101,-0.0093,-0.0095,-0.0092,-0.0082,-0.0181,-0.0181,-0.0181,0,0,0.0101,0.0094,0.0094,0.0074,0.0057,0.0062,0.0026,0.0022,0.0032,-0.0025,-0.002,-0.0052,-0.0085,-0.0083,-0.0086,-0.0099,-0.0086,-0.009,-0.0083,-0.009,-0.0088,-0.0079,-0.007,-0.0179,-0.018,-0.018,0,0,0.0125,0.0112,0.0123,0.0114,0.01,0.0087,0.0092,0.0065,0.0057,0.0056,0.0024,0.0011,-0.0017,-0.0032,-0.0041,-0.0004,-0.0048,-0.0008,0.005,0.0055,0.0063,0.007,0.0028,0.003,0.0007,0.0008,0.0008,0,0.0134,0.0147,0.0121,0.0133,0.0144,0.0108,0.0131,0.0116,0.009,0.0075,0.0072,0.0045,0.0009,0.0027,0.0036,0.0016,-0.0002,0.0017,0.0068,0.0074,0.0079,0.0034,0.0036,0.0013,0.0012,0.0012,0.0011,0,0.0169,0.018,0.0189,0.02,0.0204,0.0217,0.0205,0.0201,0.0194,0.0158,0.0162,0.0138,0.0128,0.0117,0.0085,0.0113,0.0078,0.0072,0.0045,0.0095,0.0044,0.0044,0.002,0.0018,0.0017,0.0015,0,0,0.0188,0.0211,0.0214,0.0238,0.0248,0.0257,0.0279,0.0267,0.0276,0.0254,0.0286,0.0248,0.0228,0.0218,0.02,0.0195,0.0203,0.0157,0.0155,0.0121,0.0187,0.0118,0.0109,0.0219,0.022,0.0221,0.0131,0,0.0224,0.0265,0.0276,0.033,0.0353,0.0351,0.0375,0.0358,0.0339,0.035,0.0327,0.0323,0.0276,0.0291,0.0292,0.0235,0.0209,0.0225,0.0137,0.0133,0.0072,0.011,0.0136,0.0055,0.013,0.013,0.013,0,0.0258,0.0284,0.0343,0.0399,0.0411,0.0444,0.048,0.0497,0.0475,0.0465,0.047,0.0432,0.0439,0.0401,0.0347,0.0367,0.0277,0.0216,0.0212,0.0112,0.0065,0.0019,0.0051,0.0128,0.0128,0.0129,0.0129,0,0.0285,0.0337,0.0394,0.0413,0.0463,0.0498,0.0526,0.0511,0.0531,0.0535,0.0542,0.0542,0.0604,0.0496,0.0377,0.0364,0.0305,0.0273,0.011,0.0102,0.0085,0.0074,0.0201,0.0202,0.0202,0.0202,0.0202,0,0.0328,0.0371,0.041,0.0444,0.0515,0.0539,0.0602,0.0609,0.0646,0.0675,0.0614,0.0683,0.0638,0.0592,0.0426,0.0286,0.0347,0.0115,0.0086,0.0116,0.011,0.0145,0.014,0.0199,0.0199,0.02,0.0201,0,0.0356,0.038,0.0445,0.0506,0.0532,0.0582,0.0665,0.0702,0.0707,0.0774,0.078,0.0834,0.0776,0.0638,0.0521,0.0384,0.0203,0.0117,0.0132,0.0106,-0.003,-0.0029,-0.0076,-0.0079,-0.0081,-0.0084,-0.0085,0,0.0372,0.0402,0.0484,0.0517,0.0554,0.0626,0.0681,0.0738,0.0785,0.0854,0.0909,0.0902,0.0928,0.0723,0.047,0.0168,0.0152,-0.0011,-0.005,-0.0029,-0.0053,-0.0048,-0.0044,-0.0043,-0.0044,-0.0045,-0.0046,0,0.0389,0.0418,0.0469,0.0531,0.0603,0.0689,0.0772,0.0853,0.0929,0.1016,0.114,0.1164,0.0965,0.0781,0.0395,0.0178,0.0037,-0.0047,0.0017,0.0018,-0.0006,-0.0027,-0.0022,-0.0056,-0.0055,-0.0054,-0.0053,-0.0053,0.0384,0.0411,0.0459,0.0536,0.0617,0.0737,0.0852,0.0987,0.1157,0.1312,0.1308,0.1362,0.1099,0.0645,0.0294,-0.0066,-0.0068,-0.0184,-0.0176,-0.0168,-0.0154,-0.0181,-0.0263,-0.0263,-0.0264,-0.0264,-0.0264,0,0.0349,0.0379,0.0445,0.055,0.0671,0.0703,0.0896,0.1054,0.1328,0.1459,0.156,0.1289,0.1037,0.069,0.0142,-0.0197,-0.0195,-0.0288,-0.0198,-0.0188,-0.0179,-0.0161,-0.0275,-0.0276,-0.0276,-0.0277,0,0,0.0317,0.0357,0.0409,0.0573,0.0662,0.0843,0.0984,0.1243,0.1409,0.162,0.1666,0.159,0.1174,0.0779,0.0328,0.0039,0.0006,-0.0024,0.0015,0.0182,0.0196,-0.0099,-0.0059,0,0,0,0,0]}],[{"header":{"parameterUnit":"m.s-1","parameterCategory":2,"la1":30.2991,"la2":30.254,"lo1":-89.0895,"lo2":-89.0444,"dy":0.0017,"dx":0.0017,"nx":28,"ny":28,"refTime":"2025-07-06T21:00:00:Z","depth":"4","parameterNumber":2,"parameterNumberName":"U-component_of_CURRENTS"},"data":[0,0,0,0,0,0,0,0,0,0,0,0,0,0,0,0,0,0,0,0,0,0,0,0,0,0,0,0,0,0,0,0,0,0,0,0,0,0,0,0,0,0,0,0,0,0,0,0,0,0,0,0,0,0,0,0,0,0,0.1527,0.1527,0,0.1482,0.1481,0.1481,0.1512,0.1513,0.1515,0.1516,0.1579,0.1579,0.1579,0,0,0,0,0,0,0,0,0,0,0,0,0,0.1508,0.1509,0.1527,0.1526,0.1526,0.1482,0.1481,0.148,0.1511,0.1513,0.1515,0.1517,0.1579,0.1579,0.1579,0,0,0,0,0,0,0,0,0,0,0,0,0,0.1493,0.1509,0.1527,0.1538,0.1539,0.1482,0.1481,0.148,0.1511,0.1513,0.1516,0.1518,0.1579,0.1579,0.1579,0.1533,0,0,0.158,0.158,0,0,0,0,0,0,0,0,0.1494,0.1494,0.1537,0.1537,0.1538,0.1507,0.1497,0.1504,0.151,0.1519,0.1516,0.1519,0.1565,0.1566,0.1548,0.1536,0.1539,0.158,0.158,0.1581,0.1581,0,0,0,0,0,0,0,0.1495,0.1495,0.1507,0.1536,0.1537,0.15,0.1502,0.1498,0.1529,0.1519,0.1521,0.1519,0.1566,0.1547,0.155,0.154,0.158,0.1581,0.1581,0.1581,0.1604,0.1605,0,0,0,0,0,0,0.1509,0.1496,0.1508,0.1506,0.1524,0.1499,0.1501,0.1512,0.1527,0.1531,0.1517,0.1521,0.1546,0.1549,0.1552,0.163,0.1581,0.1581,0.1581,0.1604,0.1604,0.1605,0,0,0,0,0,0,0.1509,0.1511,0.151,0.1501,0.1499,0.1498,0.151,0.151,0.1535,0.1525,0.1532,0.1547,0.1548,0.1552,0.1607,0.1629,0.1581,0.1581,0.1603,0.1604,0.1605,0.1703,0,0,0,0,0,0,0.1509,0.1512,0.1534,0.1502,0.15,0.1503,0.1508,0.1508,0.1528,0.1534,0.1552,0.1557,0.155,0.1606,0.1607,0.1628,0.1581,0.1603,0.1604,0.1604,0.1699,0.1707,0.1713,0,0,0,0,0,0.1509,0.1518,0.1535,0.1537,0.1528,0.1504,0.1499,0.1503,0.1528,0.1536,0.1573,0.1559,0.1611,0.1608,0.1608,0.163,0.1602,0.1603,0.1604,0.1696,0.1705,0.1713,0,0,0,0,0,0,0.1511,0.1522,0.154,0.1552,0.1546,0.1511,0.1519,0.1524,0.1551,0.158,0.158,0.1588,0.1654,0.1616,0.1613,0.1634,0.1597,0.1598,0.1666,0.1675,0.1682,0.1708,0.1582,0,0,0,0,0,0.1525,0.1546,0.154,0.1552,0.1559,0.1549,0.1547,0.1553,0.1564,0.1579,0.1588,0.1605,0.1643,0.1645,0.1667,0.1667,0.1678,0.1673,0.168,0.1687,0.1706,0.1789,0.1807,0.1608,0.1608,0.1608,0,0,0.1528,0.1536,0.1549,0.1555,0.1557,0.1562,0.1555,0.1565,0.1584,0.1582,0.1625,0.1654,0.166,0.1692,0.1709,0.1666,0.1737,0.1688,0.1694,0.171,0.1792,0.1812,0.183,0.1609,0.1609,0.1609,0,0,0.1524,0.156,0.1574,0.1578,0.1591,0.1589,0.1606,0.1597,0.1621,0.1665,0.1682,0.1733,0.1747,0.1755,0.1766,0.1815,0.1803,0.18,0.1829,0.1909,0.1928,0.1944,0.1941,0.1957,0.1768,0.1768,0.1768,0,0.1531,0.1546,0.1569,0.1579,0.159,0.1613,0.1625,0.1642,0.1653,0.1679,0.1703,0.1776,0.1786,0.1832,0.1854,0.1837,0.1856,0.1803,0.1925,0.1941,0.1957,0.195,0.1966,0.1773,0.1772,0.1772,0.1771,0,0.153,0.1551,0.1558,0.1594,0.1614,0.1622,0.1658,0.1691,0.174,0.1752,0.1841,0.1869,0.1902,0.1906,0.1908,0.1989,0.1957,0.196,0.1915,0.1984,0.1969,0.1985,0.178,0.1778,0.1776,0.1775,0,0,0.1512,0.1551,0.1556,0.1572,0.1625,0.163,0.17,0.1743,0.1783,0.1843,0.1882,0.198,0.1996,0.2008,0.2001,0.2057,0.2172,0.2052,0.2054,0.2068,0.2307,0.2134,0.2132,0.2216,0.222,0.2223,0.2239,0,0.1501,0.1512,0.1552,0.1579,0.1588,0.1654,0.1704,0.1763,0.1823,0.1859,0.1934,0.1993,0.2029,0.2054,0.2126,0.2195,0.2224,0.2164,0.222,0.222,0.2078,0.215,0.2237,0.225,0.2254,0.2256,0.2258,0,0.1479,0.1492,0.1509,0.1565,0.1582,0.1619,0.1712,0.1761,0.1843,0.1899,0.1984,0.2022,0.2133,0.2137,0.2315,0.2285,0.2302,0.2335,0.2337,0.216,0.2078,0.2174,0.2285,0.2283,0.2281,0.2279,0.2277,0,0.1424,0.1462,0.1476,0.1491,0.156,0.161,0.1677,0.1773,0.1824,0.1925,0.1975,0.2098,0.2174,0.2286,0.2377,0.237,0.253,0.2515,0.235,0.2334,0.2443,0.2426,0.2601,0.2601,0.2601,0.2601,0.2601,0,0.1369,0.1381,0.145,0.1453,0.1485,0.1579,0.1641,0.1723,0.1826,0.1876,0.1994,0.2048,0.2236,0.2326,0.239,0.2428,0.2553,0.2374,0.2351,0.2471,0.2458,0.2451,0.2433,0.2601,0.2601,0.2601,0.2601,0,0.1278,0.1322,0.133,0.1415,0.1448,0.1477,0.1613,0.1652,0.1797,0.1864,0.1911,0.2064,0.2222,0.233,0.248,0.243,0.2481,0.2427,0.2509,0.2487,0.2212,0.2199,0.2267,0.2261,0.2257,0.2253,0.225,0,0.1214,0.1207,0.1285,0.1285,0.1322,0.1394,0.1442,0.1609,0.166,0.1861,0.187,0.2041,0.2128,0.2211,0.2341,0.2411,0.2378,0.2338,0.2319,0.222,0.2191,0.2185,0.2178,0.2242,0.2241,0.224,0.2239,0,0.1073,0.1118,0.1132,0.1157,0.1194,0.1236,0.1334,0.1373,0.1567,0.1699,0.1809,0.1881,0.2001,0.2125,0.2167,0.2216,0.2358,0.2289,0.2299,0.2281,0.2191,0.2165,0.2164,0.2223,0.2225,0.2226,0.2227,0,0.0964,0.094,0.0978,0.0997,0.1038,0.1074,0.1155,0.1253,0.1347,0.1594,0.162,0.1823,0.198,0.2018,0.208,0.2108,0.2086,0.2005,0.2029,0.2047,0.1973,0.1825,0.1741,0,0,0,0,0,0.0839,0.0814,0.0815,0.0829,0.0885,0.0931,0.1066,0.1166,0.1363,0.1397,0.1519,0.1631,0.1746,0.1843,0.1836,0.1964,0.2075,0.1939,0.1987,0.2134,0.2152,0.2086,0,0,0,0,0,0,0.0739,0.0728,0.0759,0.0704,0.0707,0.0761,0.0862,0.1004,0.1051,0.1261,0.1353,0.1485,0.164,0.1736,0.1788,0.1814,0.18,0.2058,0.2052,0.2123,0.214,0.2155,0.2094,0,0,0,0,0]},{"header":{"parameterUnit":"m.s-1","parameterCategory":2,"la1":30.2991,"la2":30.254,"lo1":-89.0895,"lo2":-89.0444,"dy":0.0017,"dx":0.0017,"nx":28,"ny":28,"refTime":"2025-07-06T21:00:00:Z","depth":"4","parameterNumber":3,"parameterNumberName":"V-component_of_CURRENTS"},"data":[0,0,0,0,0,0,0,0,0,0,0,0,0,0,0,0,0,0,0,0,0,0,0,0,0,0,0,0,0,0,0,0,0,0,0,0,0,0,0,0,0,0,0,0,0,0,0,0,0,0,0,0,0,0,0,0,0,0,0.0012,0.0012,0,-0.0022,-0.0023,-0.0023,-0.0048,-0.0048,-0.0048,-0.0048,-0.0114,-0.0115,-0.0117,0,0,0,0,0,0,0,0,0,0,0,0,0,0.0028,0.0028,0.0012,0.0012,0.0012,-0.0022,-0.0023,-0.0024,-0.0048,-0.0048,-0.0048,-0.0048,-0.0113,-0.0115,-0.0117,0,0,0,0,0,0,0,0,0,0,0,0,0,0.0009,0.0028,0.0013,-0.0004,-0.0005,-0.0022,-0.0023,-0.0024,-0.0048,-0.0048,-0.0048,-0.0049,-0.0112,-0.0115,-0.0117,-0.013,0,0,-0.0125,-0.0126,0,0,0,0,0,0,0,0,0.001,0.0008,-0.0001,-0.0003,-0.0005,-0.003,-0.0041,-0.006,-0.0048,-0.0033,-0.0048,-0.0049,-0.0088,-0.0092,-0.01,-0.0133,-0.0136,-0.0125,-0.0126,-0.0128,-0.0128,0,0,0,0,0,0,0,0.0011,0.0009,-0.0003,-0.0001,-0.0003,-0.0019,-0.0022,-0.0045,-0.0061,-0.0035,-0.0036,-0.0038,-0.0089,-0.0097,-0.0101,-0.0137,-0.0125,-0.0127,-0.0129,-0.013,-0.0196,-0.0196,0,0,0,0,0,0,0.002,0.0011,-0.0001,-0.0004,0.0004,-0.0019,-0.0022,-0.0023,-0.006,-0.0065,-0.0038,-0.0039,-0.0093,-0.0098,-0.0104,-0.0123,-0.0128,-0.013,-0.0131,-0.0196,-0.0196,-0.0196,0,0,0,0,0,0,0.002,0.0019,-0.0,0.0004,0.0,-0.0019,-0.0019,-0.0023,-0.0029,-0.0062,-0.0068,-0.0039,-0.0093,-0.01,-0.0118,-0.0125,-0.0131,-0.0133,-0.0196,-0.0196,-0.0196,-0.016,0,0,0,0,0,0,0.0021,0.002,0.002,0.0004,0.0,-0.0007,-0.0019,-0.0024,-0.0029,-0.0031,-0.0065,-0.0071,-0.0094,-0.0114,-0.012,-0.0129,-0.0135,-0.0195,-0.0196,-0.0196,-0.0161,-0.0159,-0.0157,0,0,0,0,0,0.0022,0.0026,0.002,0.0019,0.0003,-0.0007,-0.0011,-0.0026,-0.0029,-0.0031,-0.005,-0.007,-0.0122,-0.0115,-0.0123,-0.0133,-0.0195,-0.0196,-0.0196,-0.0161,-0.0159,-0.0157,0,0,0,0,0,0,0.0031,0.0023,0.0017,0.0018,0.0007,-0.0011,-0.0013,-0.0022,-0.0038,-0.0038,-0.0068,-0.0075,-0.0097,-0.0118,-0.011,-0.0155,-0.0165,-0.0167,-0.0136,-0.0134,-0.0132,-0.0121,-0.0137,0,0,0,0,0,0.0034,0.0037,0.0024,0.0025,0.0021,0.0005,-0.0001,-0.0009,-0.0023,-0.003,-0.0053,-0.008,-0.0107,-0.012,-0.0147,-0.0165,-0.0186,-0.0179,-0.0178,-0.0176,-0.0173,-0.02,-0.02,-0.0199,-0.0199,-0.0199,0,0,0.0037,0.0035,0.0035,0.0027,0.0018,0.002,0.0001,-0.0002,-0.0,-0.0035,-0.0042,-0.0074,-0.011,-0.0133,-0.0145,-0.015,-0.019,-0.0177,-0.0175,-0.0172,-0.02,-0.02,-0.02,-0.0199,-0.0199,-0.0199,0,0,0.0048,0.0044,0.005,0.0045,0.0038,0.0032,0.0034,0.0018,0.001,0.0002,-0.0029,-0.0057,-0.0092,-0.0123,-0.0141,-0.0146,-0.018,-0.0163,-0.0145,-0.0172,-0.0172,-0.0172,-0.0204,-0.0208,-0.0162,-0.0162,-0.0162,0,0.005,0.0062,0.0049,0.0054,0.0062,0.0042,0.0056,0.0041,0.0022,0.0014,0.0006,-0.0055,-0.0085,-0.012,-0.0126,-0.0142,-0.0165,-0.0147,-0.0168,-0.0169,-0.017,-0.0203,-0.0207,-0.016,-0.0161,-0.0161,-0.0161,0,0.0067,0.0076,0.0081,0.0088,0.0092,0.01,0.0089,0.0082,0.0075,0.0055,0.0022,-0.0022,-0.0058,-0.0081,-0.0103,-0.0135,-0.0153,-0.0161,-0.0169,-0.0168,-0.0203,-0.0208,-0.0158,-0.0159,-0.0159,-0.0159,0,0,0.0072,0.009,0.0092,0.0117,0.0116,0.0131,0.0129,0.0124,0.0128,0.0087,0.0075,0.0019,-0.0015,-0.0039,-0.0083,-0.0113,-0.0144,-0.0139,-0.0142,-0.0164,-0.021,-0.0209,-0.0215,-0.0157,-0.0157,-0.0158,-0.0234,0,0.0091,0.0127,0.0126,0.017,0.0195,0.0185,0.0193,0.0183,0.0164,0.014,0.0074,0.005,0.0003,-0.0012,-0.0055,-0.0117,-0.0155,-0.0123,-0.0215,-0.0218,-0.021,-0.022,-0.0159,-0.0238,-0.0239,-0.024,-0.0241,0,0.0108,0.0139,0.0185,0.0238,0.0247,0.0266,0.0292,0.0292,0.0241,0.0223,0.0167,0.0112,0.0047,0.0016,-0.0092,-0.007,-0.0138,-0.019,-0.0194,-0.0207,-0.0226,-0.024,-0.025,-0.025,-0.0249,-0.0248,-0.0248,0,0.0142,0.0186,0.0237,0.0251,0.0292,0.0314,0.0333,0.0314,0.033,0.027,0.0268,0.0168,0.0133,0.0036,-0.0082,-0.0083,-0.0205,-0.0214,-0.0283,-0.0284,-0.0277,-0.0276,-0.0291,-0.029,-0.029,-0.029,-0.029,0,0.0173,0.0216,0.0261,0.0291,0.0365,0.0369,0.0425,0.0416,0.0402,0.0416,0.0314,0.0293,0.0139,0.0042,-0.0069,-0.0193,-0.0193,-0.0282,-0.0302,-0.0262,-0.0258,-0.0281,-0.0279,-0.0293,-0.0292,-0.0292,-0.0291,0,0.0205,0.0225,0.0296,0.0356,0.0384,0.0437,0.0508,0.054,0.0515,0.0526,0.0514,0.0393,0.0271,0.0109,-0.0057,-0.0156,-0.0281,-0.033,-0.0283,-0.0299,-0.0348,-0.0344,-0.0401,-0.0402,-0.0402,-0.0403,-0.0403,0,0.0228,0.0263,0.0354,0.0408,0.0442,0.0521,0.0577,0.0595,0.0627,0.0588,0.0592,0.047,0.0372,0.0136,-0.0043,-0.0261,-0.0295,-0.0368,-0.0357,-0.0345,-0.0359,-0.0354,-0.0348,-0.0404,-0.0404,-0.0404,-0.0404,0,0.0277,0.0302,0.0362,0.0469,0.0547,0.0642,0.0714,0.0749,0.0755,0.0738,0.0666,0.0518,0.0363,0.0151,-0.0029,-0.0186,-0.0321,-0.0374,-0.0373,-0.0363,-0.0349,-0.0361,-0.0355,-0.0406,-0.0405,-0.0405,-0.0405,0,0.0314,0.0366,0.0436,0.0537,0.0631,0.0723,0.0765,0.0801,0.0829,0.0779,0.0749,0.0562,0.0443,0.0189,0.0025,-0.0133,-0.0168,-0.0221,-0.0229,-0.0229,-0.0162,-0.0118,-0.012,0,0,0,0,0,0.0352,0.0412,0.0503,0.0606,0.0694,0.075,0.0839,0.0865,0.087,0.0839,0.0799,0.0652,0.0385,0.0253,0.0101,0.0017,-0.0197,-0.0168,-0.026,-0.0415,-0.0413,-0.0364,0,0,0,0,0,0,0.0377,0.046,0.0509,0.0637,0.0708,0.0814,0.0871,0.088,0.086,0.0829,0.0693,0.0606,0.0353,0.0475,0.0093,0.0041,-0.004,-0.0298,-0.0301,-0.0416,-0.0414,-0.0413,-0.0361,0,0,0,0,0]}]]